Location: Namasale
(1.5000°N, 32.6167°E)
Time: 23:01:43
(UTC+00:00)

Transit 2A - Pass Details

Date: 27 April 2021
Orbit: 602 x 957 km, 66.7° (Epoch: 11 May)

Event Time Altitude Azimuth Distance (km) Brightness Sun altitude
Rises 01:56:40 0° 207° (SSW) 3,395 - -26.4°
Reaches altitude 10° 01:59:16 10° 211° (SSW) 2,402 - -25.7°
Maximum altitude 02:04:40 58° 289° (WNW) 877 - -24.4°
Exits shadow 02:05:03 56° 309° (NW) 886 6.0 -24.3°
Drops below altitude 10° 02:09:30 10° 8° (N) 2,160 8.6 -23.3°
Sets 02:11:45 0° 12° (NNE) 3,025 9.5 -22.7°
